Location: Platte
(43.3870°N, 98.8440°W)
Time: 02:10:42
(UTC-05:00)

Cosmos 1025 Rocket - Pass Details

Date: 21 May 2018
Orbit: 594 x 619 km, 82.5° (Epoch: 13 August)

Event Time Altitude Azimuth Distance (km) Brightness Sun altitude
Exits shadow 23:36:42 52° 111° (ESE) 759 3.2 -21.0°
Maximum altitude 23:37:00 53° 94° (E) 748 3.2 -21.0°
Drops below altitude 10° 23:41:16 10° 18° (NNE) 1,978 6.2 -21.3°
Sets 23:43:32 0° 13° (NNE) 2,891 7.3 -21.5°
